Regional Weather Roundup
Issued by NWS Charleston, SC

Current Version | Previous Version | Text Only | Print | Product List | Glossary Off
Versions: 1 2 3 4 5 6 7 8 9 10 11 12 13 14 15 16 17 18 19 20 21 22 23 24 25 26 27 28 29 30 31 32 33 34 35 36 37 38 39 40 41 42 43 44 45 46 47 48 49 50
000 ASUS42 KCHS 070812 RWRCHS REGIONAL WEATHER ROUNDUP NATIONAL WEATHER SERVICE CHARLESTON SC 400 AM EDT TUE JUL 07 2015 NOTE: "FAIR" INDICATES FEW OR NO CLOUDS BELOW 12,000 FEET WITH NO SIGNIFICANT WEATHER AND/OR OBSTRUCTIONS TO VISIBILITY. NOT ALL STATIONS ARE QUALITY CONTROLLED BY THE NATIONAL WEATHER SERVICE. USE DATA WITH CAUTION...ESPECIALLY DEWPOINT OBSERVATIONS. SCZ027-030-031-034>040-042>050-070900- ...SOUTHEAST SOUTH CAROLINA... CITY SKY/WX TMP DP RH WIND PRES REMARKS N CHARLESTON PTCLDY 75 72 90 CALM 30.11S WATERFRONT PAR N/A 78 75 90 VRB2 30.08R MOUNT PLEASANT LGT RAIN 73 73 100 CALM 30.11S JOHNS ISLAND FAIR 75 73 94 CALM 30.11R PINOPOLIS NOT AVBL MONCKS CORNER FAIR 73 72 94 CALM 30.11R SUMMERVILLE FAIR 72 72 100 CALM 30.11S BEAUFORT MCAS PTCLDY 75 72 90 SW5 30.11R BEAUFORT ARPT FAIR 77 72 83 SW7 30.10S HILTON HEAD IS MOCLDY 77 73 88 SW5 30.12R WALTERBORO SUNNY 70 68 94 CALM 30.11S ALLENDALE FAIR 73 72 94 CALM 30.10S ...SOUTHERN MIDLANDS AND PEE DEE... CITY SKY/WX TMP DP RH WIND PRES REMARKS GEORGETOWN NOT AVBL KINGSTREE NOT AVBL ORANGEBURG CLEAR 73 70 90 SW3 30.11S BARNWELL FAIR 73 72 94 SW3 30.11F AIKEN NOT AVBL MANNING FAIR 73 70 88 SW3 30.11R COLUMBIA PTCLDY 74 71 91 CALM 30.09S SUMTER CLEAR 74 72 94 S3 30.08S FLORENCE CLEAR 75 73 93 SW5 30.10S MYRTLE BEACH CLEAR 75 70 83 SW6 N/A N MYRTLE BEACH CLEAR 76 72 87 SW3 30.11R $$ GAZ063-065-086>088-099>101-113>116-118-119-134>141-150-070900- ...SOUTHEAST GEORGIA... CITY SKY/WX TMP DP RH WIND PRES REMARKS SAVANNAH ARPT PTCLDY 73 70 90 W3 30.11S HUNTER AAF PTCLDY 73 73 99 W5 30.09R FORT STEWART MOCLDY 74 71 89 SW2 30.10R STATESBORO NOT AVBL SYLVANIA SUNNY 74 74 99 CALM 30.12S CLAXTON FAIR 73 73 100 CALM 30.11S ...CSRA...CENTRAL AND FAR SOUTHEAST GEORGIA... CITY SKY/WX TMP DP RH WIND PRES REMARKS THOMSON CLEAR 73 73 100 CALM 30.15F AUGUSTA-BUSH MOCLDY 73 71 93 CALM 30.09S AUGUSTA-DANIEL PTCLDY 76 70 82 CALM 30.11S SWAINSBORO FAIR N/A N/A N/A CALM 30.12F VIDALIA CLEAR 72 70 94 CALM 30.12S EASTMAN FOG 70 70 100 CALM 30.14S VSB 1/2 HAZLEHURST FAIR 74 74 100 CALM 30.12R ALMA PTCLDY 72 71 97 CALM 30.12R WAYCROSS PTCLDY 75 74 97 SW3 30.12R JESUP FAIR 73 73 100 CALM 30.12R BAXLEY FAIR 73 72 94 CALM 30.12R BRUNSWICK PTCLDY 72 72 100 CALM 30.12S SAINT SIMONS CLEAR 75 71 87 W9 30.11R $$ SCZ027-028-034-036>038-045-046-048>050-GAZ119-141-070900- ...LAKE AND SUPPLEMENTAL COASTAL OBSERVATIONS... STATION/POSITION TIME TEMP WIND PRES WAVE SWELL AIR SEA DIR/SP/G HT/PER HT/PER/DIR (UTC) (F) (DEG/KT/KT) (MB) (FT/S) (FT/S/D) UPR LAKE MARION NOT AVBL WINYAH BAY 0645 75 270/ 3 1018.0 LAKE MURRAY 0700 79 250/ 3/ 6 1018.6R ACE BASIN NERRS NOT AVBL FORT PULASKI 0700 77 83 250/ 4/ 5 1019.7S SAPELO ISLAND 0700 77 230/ 8 1019.0S $$ ANZ835-935-AMZ111-154-330-350-352-354-370-450-454-472-070900- ...C-MAN AND BUOY OBSERVATIONS... STATION/POSITION TIME TEMP WIND PRES WAVE SWELL AIR SEA DIR/SP/G HT/PER HT/PER/DIR (UTC) (F) (DEG/KT/KT) (MB) (FT/S) (FT/S/D) BUOY 41004 0750 81 83 240/ 10/ 12 1019.0R 3/ 8 3/ 8 BUOY 41008 0750 78 79 230/ 10/ 12 1019.6R 2/ 9 2/130/ 9 FOLLY BEACH CMAN 0700 79 240/ 9/ 11 1019.2S CAPERS NEARSHORE 0708 81 240/ 12/ 16 1019.5R FRIPP NEARSHORE 0700 81 240/ 12/ 14 1018.7S STATION/POSITION TIME TEMP WIND PRES WAVE SWELL AIR SEA DIR/SP/G HT/PER HT/PER/DIR (UTC) (F) (DEG/KT/KT) (MB) (FT/S) (FT/S/D) 5E ST. MARYS GA 0721 78 N/A 2/ 9 FRYING PAN BUOY 0750 81 79 230/ 10/ 14 1020.0R 3/ 8 2/140/ 8 BUOY 41025 0750 80 82 210/ 14/ 16 1019.2F 3/ 9 2/120/ 9 CAPE LOOKOUT NC 0700 79 210/ 7/ 9 1019.2F BUOY 41002 0750 82 80 220/ 8/ 10 1021.3F 4/ 8 3/120/ 8 BUOY 41010 0720 83 83 150/ 12/ 14 1019.6F ST AUGUSTINE FL 0800 71 71 240/ 3/ 4 1020.8R $$

USA.gov is the U.S. government's official web portal to all federal, state and local government web resources and services.